Weather History for Shishmaref, AK

Change the Weather History Date:

Saturday, February 23, 2013

  Actual Average Record
Temperature  
Mean Temperature -22 °F -  
Max Temperature -18 °F 2 °F 33 °F (2009)
Min Temperature -25 °F -4 °F -27 °F (2008)
Degree Days  
Heating Degree Days 86    
Moisture  
Dew Point -24 °F    
Average Humidity 87    
Maximum Humidity 100    
Minimum Humidity 63    
Precipitation  
Precipitation 0.00 in - - ()
Sea Level Pressure  
Sea Level Pressure 29.58 in    
Wind  
Wind Speed 8 mph (NNE)    
Max Wind Speed 10 mph    
Max Gust Speed -    
Visibility 10 miles    
Events      
Averages and records for this station are not official NWS values.
T = Trace of Precipitation, MM = Missing Value Source: NWS Daily Summary

Daily Weather History Graph

Daily Weather History Graph

Search for Another Location

Airport:

Trip Planner

Search our weather history database for the weather conditions in past years. The results will help you decide how hot, cold, wet, or windy it might be!

Date:

Astronomy

Feb. 23, 2013 Rise Set
Actual Time 9:38 AM AKST 6:58 PM AKST
Civil Twilight 8:45 AM AKST 7:51 PM AKST
Nautical Twilight 7:45 AM AKST 8:51 PM AKST
Astronomical Twilight 6:44 AM AKST 9:52 PM AKST
Moon 4:58 PM AKST (2/23) 8:38 AM AKST (2/23)
Length of Visible Light 11h 06m
Length of Day
9h 19m
Waxing Gibbous, 96% of the Moon is Illuminated
Feb 23
Waxing Gibbous
Feb 25
Full
Mar 4
Last Quarter
Mar 11
New
Mar 19
First Quarter

Hourly Weather History & Observations

Time (AKST) Temp. Windchill Dew Point Humidity Pressure Visibility Wind Dir Wind Speed Gust Speed Precip Events Conditions
12:16 AM -25.6 °F -41.9 °F - N/A% 29.67 in 10.0 mi NE 5.8 mph - N/A   Overcast
12:36 AM -25.6 °F -43.8 °F - N/A% 29.66 in 10.0 mi NE 6.9 mph - N/A   Mostly Cloudy
12:56 AM -23.8 °F -43.2 °F - N/A% 29.65 in 9.0 mi NNE 8.1 mph - N/A   Partly Cloudy
1:16 AM -22.0 °F -43.6 °F - N/A% 29.64 in 7.0 mi NNE 10.4 mph - N/A   Mostly Cloudy
1:36 AM -20.2 °F -41.3 °F - N/A% 29.64 in 7.0 mi NNE 10.4 mph - N/A   Mostly Cloudy
1:56 AM -20.2 °F -41.3 °F -27.4 °F 69% 29.64 in 10.0 mi NNE 10.4 mph - N/A   Scattered Clouds
2:16 AM -23.8 °F -43.2 °F - N/A% 29.63 in 10.0 mi NNE 8.1 mph - N/A   Scattered Clouds
2:36 AM -23.8 °F -43.2 °F - N/A% 29.63 in 10.0 mi NNE 8.1 mph - N/A   Scattered Clouds
2:56 AM -23.8 °F -43.2 °F -25.6 °F 91% 29.63 in 10.0 mi NNE 8.1 mph - N/A   Clear
3:16 AM -23.8 °F -43.2 °F - N/A% 29.62 in 10.0 mi NNE 8.1 mph - N/A   Clear
3:36 AM -22.0 °F -43.6 °F -22.0 °F 100% 29.62 in 9.0 mi NE 10.4 mph - N/A   Mostly Cloudy
3:56 AM -20.2 °F -40.1 °F - N/A% 29.62 in 10.0 mi NE 9.2 mph - N/A   Overcast
4:16 AM -22.0 °F -42.3 °F - N/A% 29.62 in 9.0 mi NNE 9.2 mph - N/A   Overcast
4:36 AM -20.2 °F -40.1 °F -20.2 °F 100% 29.61 in 5.0 mi NNE 9.2 mph - N/A   Overcast
4:56 AM -20.2 °F -40.1 °F - N/A% 29.61 in 6.0 mi NE 9.2 mph - N/A   Overcast
5:16 AM -20.2 °F -40.1 °F -20.2 °F 100% 29.60 in 5.0 mi NE 9.2 mph - N/A   Overcast
5:36 AM -18.4 °F -39.1 °F - N/A% 29.59 in 5.0 mi NE 10.4 mph - N/A   Overcast
5:56 AM -18.4 °F -37.9 °F -25.6 °F 70% 29.59 in 7.0 mi NE 9.2 mph - N/A   Overcast
6:16 AM -18.4 °F -36.6 °F - N/A% 29.60 in 10.0 mi NE 8.1 mph - N/A   Overcast
6:36 AM -18.4 °F -37.9 °F - N/A% 29.59 in 10.0 mi NE 9.2 mph - N/A   Overcast
6:56 AM -18.4 °F -36.6 °F -18.4 °F 100% 29.59 in 9.0 mi NE 8.1 mph - N/A   Overcast
7:16 AM -20.2 °F -37.3 °F - N/A% 29.59 in 10.0 mi NE 6.9 mph - N/A   Overcast
7:36 AM -20.2 °F -37.3 °F -20.2 °F 100% 29.58 in 10.0 mi NE 6.9 mph - N/A   Overcast
7:56 AM -20.2 °F -38.8 °F - N/A% 29.58 in 10.0 mi NE 8.1 mph - N/A   Overcast
8:16 AM -20.2 °F -38.8 °F -25.6 °F 76% 29.58 in 10.0 mi NE 8.1 mph - N/A   Scattered Clouds
8:36 AM -20.2 °F -40.1 °F - N/A% 29.58 in 10.0 mi NE 9.2 mph - N/A   Clear
8:56 AM -20.2 °F -37.3 °F - N/A% 29.58 in 10.0 mi NNE 6.9 mph - N/A   Clear
9:16 AM -22.0 °F -41.0 °F -23.8 °F 91% 29.58 in 10.0 mi NNE 8.1 mph - N/A   Clear
9:36 AM -22.0 °F -41.0 °F - N/A% 29.58 in 10.0 mi NNE 8.1 mph - N/A   Clear
9:56 AM -22.0 °F -41.0 °F -23.8 °F 91% 29.57 in 10.0 mi NE 8.1 mph - N/A   Clear
10:16 AM -23.8 °F -43.2 °F - N/A% 29.57 in 10.0 mi NNE 8.1 mph - N/A   Clear
10:36 AM -22.0 °F -39.4 °F - N/A% 29.57 in 10.0 mi NNE 6.9 mph - N/A   Clear
10:56 AM -22.0 °F -41.0 °F -22.0 °F 100% 29.57 in 10.0 mi NNE 8.1 mph - N/A   Clear
11:16 AM -22.0 °F -42.3 °F - N/A% 29.57 in 10.0 mi NNE 9.2 mph - N/A   Clear
11:36 AM -22.0 °F -42.3 °F -23.8 °F 91% 29.57 in 10.0 mi NNE 9.2 mph - N/A   Clear
11:56 AM -20.2 °F -40.1 °F - N/A% 29.57 in 10.0 mi NNE 9.2 mph - N/A   Clear
12:16 PM -20.2 °F -40.1 °F - N/A% 29.57 in 10.0 mi NNE 9.2 mph - N/A   Clear
12:36 PM -20.2 °F -40.1 °F - N/A% 29.57 in 10.0 mi NNE 9.2 mph - N/A   Clear
12:56 PM -20.2 °F -41.3 °F - N/A% 29.57 in 10.0 mi NE 10.4 mph - N/A   Clear
1:16 PM -20.2 °F -40.1 °F - N/A% 29.57 in 10.0 mi NNE 9.2 mph - N/A   Clear
1:36 PM -20.2 °F -40.1 °F -27.4 °F 69% 29.56 in 10.0 mi NNE 9.2 mph - N/A   Clear
1:56 PM -20.2 °F -40.1 °F -29.2 °F 63% 29.56 in 10.0 mi NNE 9.2 mph - N/A   Clear
2:16 PM -18.4 °F -37.9 °F -27.4 °F 63% 29.56 in 10.0 mi NNE 9.2 mph - N/A   Clear
2:36 PM -18.4 °F -37.9 °F -27.4 °F 63% 29.56 in 10.0 mi NNE 9.2 mph - N/A   Clear
2:56 PM -18.4 °F -37.9 °F - N/A% 29.55 in 10.0 mi NNE 9.2 mph - N/A   Clear
3:16 PM -18.4 °F -36.6 °F -25.6 °F 70% 29.55 in 10.0 mi NNE 8.1 mph - N/A   Clear
3:36 PM -18.4 °F -36.6 °F - N/A% 29.55 in 10.0 mi NNE 8.1 mph - N/A   Clear
3:56 PM -18.4 °F -36.6 °F - N/A% 29.55 in 10.0 mi NNE 8.1 mph - N/A   Clear
4:16 PM -18.4 °F -36.6 °F - N/A% 29.55 in 10.0 mi North 8.1 mph - N/A   Clear
4:36 PM -18.4 °F -36.6 °F - N/A% 29.55 in 10.0 mi NNE 8.1 mph - N/A   Clear
4:56 PM -18.4 °F -36.6 °F -18.4 °F 100% 29.55 in 10.0 mi NNE 8.1 mph - N/A   Clear
5:16 PM -18.4 °F -36.6 °F - N/A% 29.55 in 10.0 mi North 8.1 mph - N/A   Clear
5:36 PM -18.4 °F -36.6 °F -20.2 °F 91% 29.55 in 10.0 mi NNE 8.1 mph - N/A   Clear
5:56 PM -20.2 °F -40.1 °F - N/A% 29.55 in 10.0 mi North 9.2 mph - N/A   Clear
6:16 PM -20.2 °F -38.8 °F - N/A% 29.55 in 10.0 mi North 8.1 mph - N/A   Clear
6:36 PM -20.2 °F -38.8 °F - N/A% 29.54 in 10.0 mi North 8.1 mph - N/A   Clear
6:56 PM -22.0 °F -41.0 °F - N/A% 29.55 in 10.0 mi NNE 8.1 mph - N/A   Clear
7:16 PM -22.0 °F -41.0 °F -22.0 °F 100% 29.55 in 10.0 mi NNE 8.1 mph - N/A   Clear
7:36 PM -23.8 °F -43.2 °F - N/A% 29.55 in 10.0 mi NNE 8.1 mph - N/A   Clear
7:56 PM -23.8 °F -43.2 °F - N/A% 29.55 in 10.0 mi North 8.1 mph - N/A   Clear
8:16 PM -23.8 °F -41.6 °F - N/A% 29.55 in 10.0 mi North 6.9 mph - N/A   Clear
8:36 PM -23.8 °F -41.6 °F - N/A% 29.56 in 10.0 mi North 6.9 mph - N/A   Clear
8:56 PM -23.8 °F -41.6 °F -27.4 °F 83% 29.56 in 10.0 mi North 6.9 mph - N/A   Clear
9:16 PM -23.8 °F -41.6 °F - N/A% 29.56 in 10.0 mi NNE 6.9 mph - N/A   Scattered Clouds
9:36 PM -25.6 °F -41.9 °F - N/A% 29.56 in 10.0 mi North 5.8 mph - N/A   Mostly Cloudy
9:56 PM -25.6 °F -37.1 °F -25.6 °F 100% 29.56 in 10.0 mi North 3.5 mph - N/A   Scattered Clouds
10:16 PM -23.8 °F -35.0 °F - N/A% 29.56 in 10.0 mi North 3.5 mph - N/A   Clear
10:36 PM -23.8 °F - - N/A% 29.56 in 10.0 mi Calm Calm - N/A   Clear
10:56 PM -23.8 °F - -23.8 °F 100% 29.57 in 10.0 mi Calm Calm - N/A   Clear
11:16 PM -25.6 °F -37.1 °F - N/A% 29.57 in 10.0 mi NW 3.5 mph - N/A   Mostly Cloudy
11:36 PM -25.6 °F -37.1 °F - N/A% 29.57 in 10.0 mi NW 3.5 mph - N/A   Scattered Clouds
11:56 PM -25.6 °F - -25.6 °F 100% 29.57 in 10.0 mi Calm Calm - N/A   Mostly Cloudy